Weather in Savusavu

Fiji     16°46′48″S   179°20′16″E
temp.,
°C
wind,
m/s
gust,
m/s
humid.,
%
clouds,
%
prec.,
mm/h
press.,
hPa
HPBL,
m
16 april, fri
fri1600:00+25e348915 0.4 1012308
03:00+24e348922 0.8 1010324
06:00+24e358738 1.2 1011407
09:00+27ese357838 0.1 1013770
12:00+27ese447133 0.2 1011811
15:00+28se446915 0.1 1009820
18:00+25ese35786 0.1 1011443
21:00+24e34815 0.0 1013333
17 april, sat
sat1700:00+24e23835 0.0 1012324
03:00+24e23853 0.0 1011310
06:00+24e23844 0.0 1012320
09:00+27ese34691 0.0 1013845
12:00+28se44621 0.0 10111024
15:00+28se446616 0.0 1009816
18:00+26ese34774 0.0 1010392
21:00+24e23845 0.0 1012292
18 april, sun
sun1800:00+24e23864 0.0 1011290
03:00+23e23866 0.0 1010268
06:00+23e24854 0.0 1011307
09:00+27ese35705 0.0 1012870
12:00+29se446233 0.0 10111047
15:00+28se556931 0.0 1009672
18:00+26ese467916 0.1 1011447
21:00+24e34845 0.0 1012321
19 april, mon
mon1900:00+24ene34866 0.0 1012269
03:00+24ene348715 0.0 1011294
06:00+24e358733 0.0 1012297
09:00+27e45704 0.0 1013897
12:00+29ese55615 0.0 10121057
15:00+29ese666910 0.1 1010822
18:00+25ese57865 0.6 1012391
21:00+25e358940 0.2 1014394
20 april, tue
tue2000:00+25e458924 0.4 1013388
03:00+25e348872 0.2 1012356
06:00+25ese358843 0.4 1013388
09:00+27ese468214 0.3 1014731
12:00+29se45698 0.6 10131013
15:00+29se55678 0.2 1012841
18:00+26ese45813 0.2 1013382
21:00+25e358912 0.0 1015342